Torna al catalogo

FREGAT R/B

AttivoHEO
NORAD 40130·ROCKET BODY·🇷🇺 Russia

Lanciato Aug 22, 2014 da Guiana Space Centre

Loading…

Prossimi Passaggi (prossime 24 ore)

TLE

In scadenzaSource: Space-Track

Epoca: Aug 28, 2026, 02:45 UTC

1 40130U 14050C   26240.11525760  .00000042  00000-0  00000-0 0  9995
2 40130  48.3769 211.4432 2701762 229.4478 103.7104  2.05031723 89999

Traccia FREGAT R/B in tempo reale con AllMySat

Download on the App Store